Location: Boiro
(42.6475°N, 8.8834°W)
Time: 07:12:00
(UTC+02:00)

DOVE 4 - Visible Passes

Search period start: 16 April 2024 00:00
Search period end: 26 April 2024 00:00
Orbit: 580 x 782 km, 97.7° (Epoch: 15 April)

Date Brightness Start Highest point End Pass type
(mag) Time Alt. Az. Time Alt. Az. Time Alt. Az.
16 Apr ? 00:38:46 10° N 00:40:54 29° N 00:40:54 29° N visible
16 Apr ? 23:37:58 10° NE 23:39:13 17° NE 23:39:13 17° NE visible
17 Apr ? 01:15:32 10° NNW 01:17:40 21° NW 01:17:40 21° NW visible
18 Apr ? 00:13:46 10° NNE 00:16:00 31° NNE 00:16:00 31° NNE visible
18 Apr ? 01:53:39 10° NW 01:54:27 11° WNW 01:54:27 11° WNW visible
18 Apr ? 23:13:49 10° NE 23:14:20 12° ENE 23:14:20 12° ENE visible
19 Apr ? 00:50:08 10° N 00:52:47 32° NNW 00:52:47 32° NNW visible
19 Apr ? 23:48:59 10° NNE 23:51:05 25° NE 23:51:05 25° NE visible
20 Apr ? 01:27:06 10° NNW 01:29:33 19° NW 01:29:33 19° NW visible
21 Apr ? 00:24:58 10° N 00:27:51 43° N 00:27:51 43° N visible
21 Apr ? 23:24:30 10° NE 23:26:09 18° ENE 23:26:09 18° ENE visible
22 Apr ? 01:01:28 10° N 01:04:37 32° NW 01:04:37 32° NW visible
23 Apr ? 00:00:01 10° NNE 00:02:55 38° NE 00:02:55 38° NE visible
23 Apr ? 01:38:43 10° NNW 01:41:16 16° WNW 01:41:22 16° WNW visible
23 Apr ? 23:00:45 10° ENE 23:01:13 11° ENE 23:01:13 11° ENE visible
24 Apr ? 00:36:08 10° N 00:39:40 52° NNW 00:39:40 52° NNW visible
24 Apr ? 23:35:17 10° NE 23:37:56 26° ENE 23:37:56 26° ENE visible
25 Apr ? 01:12:48 10° NNW 01:16:24 27° WNW 01:16:24 27° WNW visible
